This is the latest recevied weather packets stored in our database for station/object K5IDL. If no packets are shown the sender has not sent any weather packets the latest 10 day(s).
| Time | Temp. | Humidity | Pressure | Rain* | Wind** | Luminosity | Snow |
|---|---|---|---|---|---|---|---|
| 1788046384 | 37.78° C | 35% | 1015.1 hPa | 0 mm | - | 27 W/m² | - |
| 1788046081 | 37.22° C | 34% | 1015 hPa | 0 mm | - | 33 W/m² | - |
| 1788045777 | 37.22° C | 35% | 1015 hPa | 0 mm | - | 22 W/m² | - |
| 1788045472 | 37.78° C | 34% | 1015 hPa | 0 mm | - | 23 W/m² | - |
| 1788045169 | 37.22° C | 34% | 1014.9 hPa | 0 mm | - | 27 W/m² | - |
| 1788044869 | 37.78° C | 33% | 1015 hPa | 0 mm | - | 26 W/m² | - |
| 1788044563 | 37.78° C | 33% | 1015 hPa | 0 mm | - | 34 W/m² | - |
| 1788044262 | 37.78° C | 33% | 1015 hPa | 0 mm | - | 26 W/m² | - |
| 1788043952 | 37.78° C | 34% | 1015.1 hPa | 0 mm | - | 26 W/m² | - |
| 1788043647 | 37.78° C | 33% | 1015 hPa | 0 mm | - | 26 W/m² | - |
| 1788043343 | 37.78° C | 35% | 1015 hPa | 0 mm | - | 26 W/m² | - |
| 1788043037 | 37.78° C | 33% | 1015.1 hPa | 0 mm | - | 36 W/m² | - |
| 1788042733 | 37.78° C | 33% | 1015.2 hPa | 0 mm | - | 39 W/m² | - |
| 1788042431 | 37.78° C | 34% | 1015 hPa | 0 mm | - | 42 W/m² | - |
| 1788042127 | 37.78° C | 33% | 1015.3 hPa | 0 mm | - | 213 W/m² | - |
| 1788041822 | 37.78° C | 33% | 1015.1 hPa | 0 mm | - | 147 W/m² | - |
| 1788041517 | 37.78° C | 32% | 1015.3 hPa | 0 mm | - | 118 W/m² | - |
| 1788041212 | 37.78° C | 33% | 1015.3 hPa | 0 mm | - | 230 W/m² | - |
| 1788040910 | 37.78° C | 33% | 1015.3 hPa | 0 mm | - | 88 W/m² | - |
| 1788040609 | 37.78° C | 33% | 1015.3 hPa | 0 mm | - | 232 W/m² | - |
| 1788040304 | 37.78° C | 33% | 1015.4 hPa | 0 mm | - | 203 W/m² | - |
| 1788039999 | 37.78° C | 32% | 1015.4 hPa | 0 mm | - | 46 W/m² | - |
| 1788039694 | 37.78° C | 33% | 1015.3 hPa | 0 mm | - | 40 W/m² | - |
| 1788039389 | 37.78° C | 33% | 1015.6 hPa | 0 mm | - | 64 W/m² | - |
| 1788039084 | 38.33° C | 32% | 1015.4 hPa | 0 mm | - | 91 W/m² | - |
* Rain latest hour (hover to see other rain measurements)
** Current wind speed in m/s (hover to see current wind gust speed)